Date String (YYYY-MM-DD hh:mm:ss) UTC,Instrument flags,Ambient pressure (hPa),Sample flow (lpm),Bypass flow (lpm),Sample temperature (°C),Ambient temperature (°C),ASC tube jacket temperature (°C),LED temperature (°C),Box temperature (°C),Sample RH (%),Span deviation,Mass concentration (μg/m³),Mass concentration (μg/m³),Mass concentration (μg/m³)
DateTimeUTC,F1_M11,P_M11,Q1_M11,Q2_M11,T1_M11,T2_M11,T3_M11,T4_M11,T5_M11,U1_M11,ZSPAN_M11,X0_M11,X2_M11,X1_M11
2022-04-02 18:00:00,,0824.7,5.00,0.00,26.6,25.8,00.0,35.5,28.4,10.7,0000.0,0011.78,0005.05,0004.48
2022-04-02 18:01:00,,0824.6,5.00,0.00,26.6,25.8,00.0,35.5,28.4,10.6,0000.0,0011.54,0005.03,0004.46
2022-04-02 18:02:00,,0824.6,5.00,0.00,26.7,25.8,00.0,35.5,28.5,10.8,0000.0,0011.81,0005.01,0004.44
2022-04-02 18:03:00,,0824.4,5.00,0.00,26.7,25.8,00.0,35.5,28.5,11.4,0000.0,0012.13,0005.03,0004.46
2022-04-02 18:04:00,,0824.4,5.00,0.00,26.7,25.8,00.0,35.5,28.5,11.3,0000.0,0012.35,0005.04,0004.46
2022-04-02 18:05:00,,0824.4,5.01,0.00,26.7,25.8,00.0,35.5,28.5,11.9,0000.0,0013.22,0005.06,0004.50
2022-04-02 18:06:00,,0824.5,4.99,0.00,26.7,25.8,00.0,35.5,28.5,11.9,0000.0,0014.20,0005.12,0004.57
2022-04-02 18:07:00,,0824.6,4.99,0.00,26.7,25.8,00.0,35.5,28.5,12.1,0000.0,0014.70,0005.20,0004.63
2022-04-02 18:08:00,,0824.6,5.00,0.00,26.7,25.8,00.0,35.6,28.5,12.1,0000.0,0014.85,0005.32,0004.70
2022-04-02 18:09:00,,0824.5,5.00,0.00,26.7,25.8,00.0,35.6,28.5,11.9,0000.0,0014.84,0005.42,0004.79
2022-04-02 18:10:00,,0824.5,5.01,0.00,26.7,25.8,00.0,35.6,28.5,12.1,0000.0,0013.90,0005.52,0004.86
2022-04-02 18:11:00,,0824.5,4.99,0.00,26.7,25.8,00.0,35.6,28.5,11.8,0000.0,0014.55,0005.54,0004.92
2022-04-02 18:12:00,,0824.4,5.00,0.00,26.7,25.9,00.0,35.6,28.5,12.0,0000.0,0015.75,0005.62,0004.97
2022-04-02 18:13:00,,0824.4,5.00,0.00,26.7,25.9,00.0,35.6,28.6,11.6,0000.0,0015.86,0005.69,0005.02
2022-04-02 18:14:00,,0824.4,4.99,0.00,26.7,25.9,00.0,35.6,28.6,11.4,0000.0,0015.59,0005.74,0005.04
2022-04-02 18:15:00,,0824.4,5.00,0.00,26.8,25.9,00.0,35.6,28.6,11.5,0000.0,0015.25,0005.76,0005.07
2022-04-02 18:16:00,,0824.4,5.00,0.00,26.8,25.9,00.0,35.6,28.6,11.4,0000.0,0014.07,0005.76,0005.07
2022-04-02 18:17:00,,0824.4,5.00,0.00,26.8,25.9,00.0,35.6,28.6,11.9,0000.0,0013.37,0005.79,0005.05
2022-04-02 18:18:00,,0824.5,4.99,0.00,26.8,26.0,00.0,35.7,28.6,12.0,0000.0,0013.03,0005.77,0005.03
2022-04-02 18:19:00,,0824.4,5.00,0.00,26.8,26.0,00.0,35.7,28.6,11.8,0000.0,0012.97,0005.76,0005.01
2022-04-02 18:20:00,,0824.5,5.00,0.00,26.8,26.0,00.0,35.7,28.6,11.6,0000.0,0013.13,0005.72,0004.98
2022-04-02 18:21:00,,0824.5,5.00,0.00,26.8,26.0,00.0,35.7,28.6,11.4,0000.0,0013.71,0005.72,0004.96
2022-04-02 18:22:00,,0824.5,5.00,0.00,26.8,26.0,00.0,35.7,28.7,11.0,0000.0,0013.00,0005.77,0004.96
2022-04-02 18:23:00,,0824.5,5.01,0.00,26.9,26.0,00.0,35.7,28.7,11.0,0000.0,0012.12,0005.82,0004.96
2022-04-02 18:24:00,,0824.5,5.00,0.00,26.9,26.0,00.0,35.7,28.7,11.1,0000.0,0011.80,0005.81,0004.94
2022-04-02 18:25:00,,0824.4,5.00,0.00,26.9,26.0,00.0,35.7,28.7,11.2,0000.0,0011.30,0005.78,0004.93
2022-04-02 18:26:00,,0824.5,5.00,0.00,26.9,26.1,00.0,35.7,28.7,11.3,0000.0,0011.31,0005.79,0004.94
2022-04-02 18:27:00,,0824.4,5.00,0.00,26.9,26.1,00.0,35.8,28.8,11.4,0000.0,0011.32,0005.80,0004.95
2022-04-02 18:28:00,,0824.4,5.00,0.00,26.9,26.1,00.0,35.8,28.8,11.5,0000.0,0011.61,0005.81,0004.96
2022-04-02 18:29:00,,0824.5,5.01,0.00,27.0,26.2,00.0,35.8,28.8,11.1,0000.0,0011.94,0005.83,0004.97
2022-04-02 18:30:00,,0824.4,5.00,0.00,27.0,26.2,00.0,35.8,28.8,11.2,0000.0,0011.88,0005.82,0004.96
2022-04-02 18:31:00,,0824.4,5.00,0.00,27.0,26.2,00.0,35.8,28.8,11.0,0000.0,0011.74,0005.88,0004.99
2022-04-02 18:32:00,,0824.4,5.00,0.00,27.0,26.3,00.0,35.8,28.9,11.1,0000.0,0011.15,0005.90,0005.02
2022-04-02 18:33:00,,0824.4,5.00,0.00,27.0,26.3,00.0,35.8,28.9,11.1,0000.0,0010.79,0005.93,0005.06
2022-04-02 18:34:00,,0824.4,4.99,0.00,27.1,26.3,00.0,35.9,28.9,11.7,0000.0,0010.90,0005.89,0005.10
2022-04-02 18:35:00,,0824.5,4.99,0.00,27.1,26.3,00.0,35.9,28.9,11.3,0000.0,0010.90,0005.88,0005.14
2022-04-02 18:36:00,,0824.4,4.99,0.00,27.1,26.4,00.0,35.9,28.9,11.0,0000.0,0010.97,0005.90,0005.18
2022-04-02 18:37:00,,0824.4,5.00,0.00,27.1,26.4,00.0,35.9,29.0,10.9,0000.0,0011.00,0005.94,0005.21
2022-04-02 18:38:00,,0824.4,5.00,0.00,27.2,26.4,00.0,35.9,29.0,11.0,0000.0,0011.14,0005.99,0005.24
2022-04-02 18:39:00,,0824.4,5.01,0.00,27.2,26.4,00.0,36.0,29.0,11.1,0000.0,0011.05,0006.01,0005.25
2022-04-02 18:40:00,,0824.4,4.99,0.00,27.2,26.4,00.0,36.0,29.0,11.0,0000.0,0010.72,0006.03,0005.28
2022-04-02 18:41:00,,0824.3,5.01,0.00,27.2,26.5,00.0,36.0,29.0,11.2,0000.0,0010.78,0006.02,0005.31
2022-04-02 18:42:00,,0824.3,5.01,0.00,27.2,26.5,00.0,36.0,29.1,11.3,0000.0,0010.93,0006.01,0005.33
2022-04-02 18:43:00,,0824.4,5.00,0.00,27.3,26.5,00.0,36.0,29.1,11.1,0000.0,0011.11,0006.01,0005.33
2022-04-02 18:44:00,,0824.3,5.01,0.00,27.3,26.5,00.0,36.1,29.1,10.1,0000.0,0011.22,0006.02,0005.31
2022-04-02 18:45:00,,0824.3,5.00,0.00,27.3,26.5,00.0,36.1,29.1,10.3,0000.0,0010.61,0005.98,0005.28
2022-04-02 18:46:00,,0824.3,4.99,0.00,27.3,26.5,00.0,36.1,29.1,10.4,0000.0,0010.75,0006.01,0005.27
2022-04-02 18:47:00,,0824.3,5.00,0.00,27.3,26.5,00.0,36.1,29.1,10.4,0000.0,0011.46,0006.03,0005.29
2022-04-02 18:48:00,,0824.2,5.00,0.00,27.3,26.4,00.0,36.1,29.1,10.1,0000.0,0012.34,0006.04,0005.28
2022-04-02 18:49:00,,0824.2,5.01,0.00,27.3,26.4,00.0,36.1,29.1,10.2,0000.0,0012.92,0006.04,0005.27
2022-04-02 18:50:00,,0824.2,5.00,0.00,27.3,26.5,00.0,36.1,29.1,10.4,0000.0,0012.59,0006.05,0005.26
2022-04-02 18:51:00,,0824.2,5.00,0.00,27.3,26.4,00.0,36.2,29.1,10.7,0000.0,0012.57,0006.05,0005.25
2022-04-02 18:52:00,,0824.2,5.00,0.00,27.3,26.4,00.0,36.2,29.1,10.5,0000.0,0013.09,0006.10,0005.27
2022-04-02 18:53:00,,0824.2,5.00,0.00,27.3,26.4,00.0,36.2,29.1,10.2,0000.8,0013.18,0006.14,0005.28
2022-04-02 18:54:00,,0824.3,5.01,0.00,27.3,26.4,00.0,36.2,29.1,10.4,0002.5,0013.10,0006.14,0005.28
2022-04-02 18:55:00,,0824.3,5.01,0.00,27.3,26.4,00.0,36.2,29.0,10.6,0002.4,0013.06,0006.14,0005.31
2022-04-02 18:56:00,,0824.2,5.01,0.00,27.3,26.4,00.0,36.2,29.1,10.4,0002.1,0013.07,0006.18,0005.34
2022-04-02 18:57:00,,0824.1,4.99,0.00,27.3,26.4,00.0,36.2,29.1,10.7,0002.3,0013.04,0006.21,0005.35
2022-04-02 18:58:00,,0824.1,5.00,0.00,27.3,26.4,00.0,36.2,29.1,11.1,0003.3,0012.57,0006.23,0005.34
2022-04-02 18:59:00,,0824.1,5.01,0.00,27.3,26.4,00.0,36.2,29.1,11.1,0003.7,0012.40,0006.23,0005.39
